Regional Weather Roundup
Issued by NWS Newport/Morehead, NC

Current Version | Previous Version | Text Only | Print | Product List | Glossary Off
Versions: 1 2 3 4 5 6 7 8 9 10 11 12 13 14 15 16 17 18 19 20 21 22 23 24 25 26 27 28 29 30 31 32 33 34 35 36 37 38 39 40 41 42 43 44 45 46 47 48 49 50
425 ASUS42 KMHX 131225 RWRMHX WEATHER ROUNDUP FOR EASTERN NORTH CAROLINA NATIONAL WEATHER SERVICE NEWPORT/MOREHEAD CITY NC 700 AM EST WED DEC 13 2017 NOTE: "FAIR" INDICATES FEW OR NO CLOUDS BELOW 12,000 FEET WITH NO SIGNIFICANT WEATHER AND/OR OBSTRUCTIONS TO VISIBILITY NCZ015>017-031-032-045>047-102-103-131300- NORTH COAST CITY SKY/WX TMP DP RH WIND PRES REMARKS EDENTON CLEAR 30 12 46 NW13G18 29.93R ELIZABETH CITY CLEAR 26 11 52 W10 29.91R WCI 16 KITTY HAWK SUNNY 29 10 43 W18G28 29.88R WCI 17 MANTEO PTCLDY 30 10 42 NW16G25 29.91R WCI 18 $$ NCZ045>047-081-094-103-104-131300- CENTRAL COAST CITY SKY/WX TMP DP RH WIND PRES REMARKS FRISCO PTCLDY 32 13 45 NW16G26 29.92R $$ NCZ095-097-098-100-101-131300- SOUTHERN COAST CITY SKY/WX TMP DP RH WIND PRES REMARKS BEAUFORT CLEAR 30 14 51 NW16G25 29.96R WCI 19 CEDAR ISLAND NOT AVBL JACKSONVILLE CLEAR 28 17 63 NW8 29.97R PINEY ISLAND N/A N/A N/A N/A NW16G24 29.95R WILMINGTON CLEAR 28 16 60 NW5 29.98R $$ NCZ011>013-027>030-043-044-078>080-089-090>093-098-131300- COASTAL PLAIN CITY SKY/WX TMP DP RH WIND PRES REMARKS AHOSKIE CLEAR 25 8 48 CALM 29.94R CLINTON CLEAR 29 14 54 NW3 29.98R ELIZABETHTOWN NOT AVBL GOLDSBORO CLEAR 27 13 55 W6 29.95R GREENVILLE CLEAR 28 10 47 W6 29.98R HAVELOCK CLEAR 29 13 51 NW10 29.97R WCI 20 KENANSVILLE CLEAR 27 14 59 W3 29.97R KINSTON CLEAR 25 14 63 CALM 29.98R NEW BERN CLEAR 26 14 60 W7 29.97R RICHLANDS CLEAR 27 15 61 CALM 29.97R ROCKY MOUNT PTCLDY 26 11 52 W6 29.96R WASHINGTON CLEAR 28 10 48 W7 29.96R WHITEVILLE CLEAR 28 17 65 CALM 29.99R $$ AMZ130-135-150-152-154-156-158-170-250-252-270-ANZ085-086-088-633-658-670-131300- MARINE OBSERVATIONS STATION/POSITION TIME TEMP WIND PRES WAVE SWELL AIR SEA DIR/SP/G HT/PER HT/PER (UTC) (F) (DEG/KT/KT) (MB) (FT/S) (FT/S) CHESAPEAKE LIGHT NOT AVBL 64 E VA BEACH 1150 34 58 290/ 27/ 37 1009.2 11/ 8 DUCK 1200 30 54 290/ 14/ 19 1011.7 2 E DUCK 1200 56 N/A 4/ 6 OREGON INLET 1200 30 45 280/ 14/ 20 1012.0 13E OREGON INLT 1148 58 N/A 8/ 8 5/ 8 HATTERAS CG 1200 32 51 300/ 25/ 31 1012.9 DIAMOND BUOY 1210 36 74 300/ 25/ 35 1012.8 CAPE LOOKOUT 1200 320/ 19/ 23 1014.4 BEAUFORT LAB 1200 31 52 320/ 10/ 20 1014.4 30 SE NEW RVR IN 1108 39 63 330/ 21/ 27 1013.1 30 SE NEW RVR IN 1200 63 N/A 7/ 5 27 SE WRIGHTSVLE 1108 40 65 330/ 23/ 35 1013.4 5 SE WRIGHTSVLE 1208 36 57 340/ 17/ 23 1014.3 225 S CAPE HAT 1150 58 75 320/ 27/ 33 1010.6 13/10 8/10 41 SE CHARLESTON 1210 46 73 320/ 17/ 23 1015.5 $$

USA.gov is the U.S. government's official web portal to all federal, state and local government web resources and services.